Overview Statistics Trail Chart Weather Telemetry Raw packets
 

This is the latest recevied weather packets stored in our database for station/object K0QED. If no packets are shown the sender has not sent any weather packets the latest 10 day(s).

<< 2 3 4 5 6 7 8 >>
Time Temp. Humidity Pressure Rain* Wind** Luminosity Snow
1788609562 15.56° C 71% 1025 hPa 0 mm - 0 W/m² -
1788609262 15° C 72% 1024.9 hPa 0 mm - 0 W/m² -
1788608957 15° C 75% 1024.9 hPa 0 mm - 0 W/m² -
1788608657 14.44° C 77% 1024.7 hPa 0 mm - 0 W/m² -
1788608356 14.44° C 79% 1024.9 hPa 0 mm - 0 W/m² -
1788608051 14.44° C 79% 1024.7 hPa 0 mm - 0 W/m² -
1788607747 14.44° C 80% 1024.7 hPa 0 mm - 0 W/m² -
1788607442 14.44° C 81% 1024.9 hPa 0 mm - 0 W/m² -
1788607136 13.89° C 85% 1025 hPa 0 mm - 0 W/m² -
1788606831 13.33° C 90% 1025 hPa 0 mm - 0 W/m² -
1788606530 12.78° C 93% 1024.9 hPa 0 mm - 0 W/m² -
1788606224 12.22° C 93% 1025.2 hPa 0 mm - 0 W/m² -
1788605919 12.22° C 94% 1024.7 hPa 0 mm - 0 W/m² -
1788605619 12.22° C 94% 1024.7 hPa 0 mm - 0 W/m² -
1788605313 12.22° C 94% 1024.7 hPa 0 mm - 0 W/m² -
1788605010 12.22° C 94% 1025 hPa 0 mm - 0 W/m² -
1788604709 12.22° C 93% 1024.7 hPa 0 mm - 0 W/m² -
1788604405 12.22° C 93% 1025 hPa 0 mm - 0 W/m² -
1788604101 12.22° C 93% 1024.7 hPa 0 mm - 0 W/m² -
1788603797 12.22° C 93% 1024.4 hPa 0 mm - 0 W/m² -
1788603497 12.22° C 92% 1025 hPa 0 mm - 0 W/m² -
1788603195 12.22° C 92% 1024.7 hPa 0 mm - 0 W/m² -
1788602889 12.22° C 92% 1025 hPa 0 mm - 0 W/m² -
1788602586 12.22° C 91% 1025.2 hPa 0 mm - 0 W/m² -
1788602285 12.78° C 91% 1025.1 hPa 0 mm - 0 W/m² -

* Rain latest hour (hover to see other rain measurements)
** Current wind speed in m/s (hover to see current wind gust speed)